This is the latest recevied weather packets stored in our database for station/object KM4RT-13. If no packets are shown the sender has not sent any weather packets the latest 10 day(s).
| Time | Temp. | Humidity | Pressure | Rain* | Wind** | Luminosity | Snow |
|---|---|---|---|---|---|---|---|
| 1777945451 | 21.67° C | 54% | 1006.8 hPa | 0 mm | - | 0 W/m² | - |
| 1777945148 | 22.22° C | 53% | 1006.9 hPa | 0 mm | - | 0 W/m² | - |
| 1777944844 | 22.22° C | 52% | 1006.9 hPa | 0 mm | - | 0 W/m² | - |
| 1777944543 | 22.78° C | 52% | 1006.9 hPa | 0 mm | - | 0 W/m² | - |
| 1777944240 | 22.78° C | 51% | 1006.9 hPa | 0 mm | - | 0 W/m² | - |
| 1777943936 | 22.78° C | 51% | 1007 hPa | 0 mm | - | 0 W/m² | - |
| 1777943633 | 22.78° C | 50% | 1006.9 hPa | 0 mm | - | 0 W/m² | - |
| 1777943330 | 22.78° C | 50% | 1006.8 hPa | 0 mm | - | 0 W/m² | - |
| 1777943025 | 22.78° C | 50% | 1007.1 hPa | 0 mm | - | 0 W/m² | - |
| 1777942722 | 22.78° C | 50% | 1006.8 hPa | 0 mm | - | 0 W/m² | - |
| 1777942419 | 23.33° C | 49% | 1007 hPa | 0 mm | - | 1 W/m² | - |
| 1777942116 | 23.33° C | 49% | 1006.7 hPa | 0 mm | - | 2 W/m² | - |
| 1777941812 | 23.33° C | 49% | 1006.6 hPa | 0 mm | - | 3 W/m² | - |
| 1777941510 | 23.89° C | 48% | 1006.7 hPa | 0 mm | - | 4 W/m² | - |
| 1777941207 | 23.89° C | 48% | 1006.8 hPa | 0 mm | - | 6 W/m² | - |
| 1777940903 | 23.89° C | 47% | 1006.8 hPa | 0 mm | - | 9 W/m² | - |
| 1777940600 | 23.89° C | 46% | 1006.9 hPa | 0 mm | - | 14 W/m² | - |
| 1777940298 | 24.44° C | 45% | 1007 hPa | 0 mm | - | 18 W/m² | - |
| 1777939995 | 24.44° C | 46% | 1006.9 hPa | 0 mm | - | 25 W/m² | - |
| 1777939692 | 24.44° C | 44% | 1006.7 hPa | 0 mm | - | 28 W/m² | - |
| 1777939390 | 25° C | 44% | 1006.9 hPa | 0 mm | - | 36 W/m² | - |
| 1777939086 | 25° C | 43% | 1006.9 hPa | 0 mm | - | 40 W/m² | - |
| 1777938783 | 25° C | 43% | 1006.9 hPa | 0 mm | - | 55 W/m² | - |
| 1777938480 | 25° C | 42% | 1007 hPa | 0 mm | - | 62 W/m² | - |
| 1777938178 | 25° C | 42% | 1007 hPa | 0 mm | - | 68 W/m² | - |
* Rain latest hour (hover to see other rain measurements)
** Current wind speed in m/s (hover to see current wind gust speed)